Location: Observatoire
(46.1952°N, 5.3391°E)
Time: 00:06:17
(UTC+01:00)

Courier 1B Rocket - Pass Details

Date: 25 February 2026
Orbit: 920 x 1201 km, 28.2° (Epoch: 11 March)

Event Time Altitude Azimuth Distance (km) Brightness Sun altitude
Rises 19:13:36 0° 239° (WSW) 3,575 9.1 -10.2°
Reaches altitude 10° 19:17:37 10° 215° (SW) 2,608 7.8 -10.9°
Maximum altitude 19:20:37 14° 185° (S) 2,332 7.1 -11.4°
Drops below altitude 10° 19:23:36 10° 156° (SSE) 2,601 7.0 -11.9°
Enters shadow 19:26:27 - 137° (SE) 3,240 7.3 -12.4°
Sets 19:27:37 0° 132° (SE) 3,560 - -12.6°
